星链-1575 (STARLINK-1575 )

导读 | 星芒AI

STARLINK-1575 是 SpaceX Starlink 项目中的一颗低轨通信卫星,属于第 15 批发射的星链卫星群。该卫星运行在约 550 公里的高度,旨在为全球用户提供高速互联网服务。作为星链星座的一部分,它通过 KU/Ka 频段与地面用户终端通信,支持宽带接入,尤其服务于偏远地区。该卫星采用可再生太阳能供电,并具备自主变轨和避碰能力,有助于提升星座的稳定性和可持续性。

基本信息
目录编号:
46349
目录名称:
STARLINK-1575
国际标识:
2020-062AA
轨道中心:
EARTH
卫星名称:
星链-1575
卫星全名:
星链-1575 (STARLINK-1575 )
卫星状态:
在轨 (已飞行1882 天)
发射日期:
2020-09-03 UTC
国别 :
美国 (US)
星等 :
--
轨道信息
数据来源 国际轨道数据
星历时间: 2025-10-28T07:19:17+0800
1天前
查看轨道信息
半长轴: 6820.424km
偏心率: 0.0011932
轨道倾角: 53.039°
近地点辐角 88.066°
升交点赤经 187.722°
平近点角 272.171°
近地点: 434.15km
远地点: 450.428km
周期: 93.428分钟
每日圈数: 15.412948
详细信息
固有亮度:
5
最大亮度:
2.5
卫星平台:
Starlink V1.0
覆盖范围:
全球
运营商:
太空探索技术公司
运营商所在国:
美国
制造商(研发单位):
太空探索技术公司
制造商所在国:
美国
使用方式:
暂无
卫星简介
星链(Starlink)计划是由太空探索技术公司(SpaceX)提出的一个巨型低轨卫星互联网星座项目,计划在2019年至2024年间在太空搭建由约1.2万颗卫星组成的“星链”网络,其中1584颗将部署在地球上空550千米处的近地轨道,并从2020年开始工作。该卫星仍在工作。
2D轨道图
3D轨道图
轨道高度分析图
轨道倾角分析图
轨道综合分析图
查看轨道综合分析图